Location: Most
(50.5133°N, 13.6207°E)
Time: 09:45:27
(UTC+01:00)

Oscar 11 - Pass Details

Date: 02 December 2021
Orbit: 611 x 625 km, 97.6° (Epoch: 26 January)

Event Time Altitude Azimuth Distance (km) Brightness Sun altitude
Rises 17:57:01 0° 215° (SW) 2,896 11.3 -17.1°
Reaches altitude 10° 18:00:11 10° 240° (WSW) 1,998 10.8 -17.6°
Maximum altitude 18:02:31 14° 273° (W) 1,740 10.4 -18.0°
Drops below altitude 10° 18:04:52 10° 305° (NW) 2,009 10.2 -18.4°
Sets 18:08:05 0° 331° (NNW) 2,923 10.7 -18.9°
